Location: Praha
(50.0830°N, 14.4670°E)
Time: 06:44:45
(UTC+01:00)

ISS - Pass Details

Date: 27 November 2019
Orbit: 411 x 421 km, 51.6° (Epoch: 15 December)

Event Time Altitude Azimuth Distance (km) Brightness Sun altitude
Rises 19:12:30 0° 269° (W) 2,360 1.3 -29.2°
Reaches altitude 10° 19:14:36 10° 272° (W) 1,499 0.0 -29.6°
Enters shadow 19:15:24 16° 275° (W) 1,186 -0.7 -29.7°
